This is the latest recevied weather packets stored in our database for station/object OK1FET-4. If no packets are shown the sender has not sent any weather packets the latest 10 day(s).
| Time | Temp. | Humidity | Pressure | Rain* | Wind** | Luminosity | Snow |
|---|---|---|---|---|---|---|---|
| 1777714918 | 27.78° C | 28% | 1024.3 hPa | - | - | - | - |
| 1777714917 | 27.78° C | 28% | 1024.3 hPa | - | - | - | - |
| 1777714615 | 28.33° C | 29% | 1024.4 hPa | - | - | - | - |
| 1777714615 | 28.33° C | 29% | 1024.4 hPa | - | - | - | - |
| 1777714313 | 27.78° C | 30% | 1024.4 hPa | - | - | - | - |
| 1777714313 | 27.78° C | 30% | 1024.4 hPa | - | - | - | - |
| 1777714011 | 27.78° C | 32% | 1024.5 hPa | - | - | - | - |
| 1777714011 | 27.78° C | 32% | 1024.5 hPa | - | - | - | - |
| 1777713709 | 27.22° C | 32% | 1024.6 hPa | - | - | - | - |
| 1777713709 | 27.22° C | 32% | 1024.6 hPa | - | - | - | - |
| 1777713407 | 26.67° C | 33% | 1024.6 hPa | - | - | - | - |
| 1777713407 | 26.67° C | 33% | 1024.6 hPa | - | - | - | - |
| 1777713105 | 26.67° C | 33% | 1024.7 hPa | - | - | - | - |
| 1777712803 | 26.67° C | 33% | 1024.7 hPa | - | - | - | - |
| 1777712803 | 26.67° C | 33% | 1024.7 hPa | - | - | - | - |
| 1777712501 | 26.11° C | 34% | 1024.7 hPa | - | - | - | - |
| 1777712501 | 26.11° C | 34% | 1024.7 hPa | - | - | - | - |
| 1777712199 | 26.11° C | 37% | 1024.8 hPa | - | - | - | - |
| 1777712199 | 26.11° C | 37% | 1024.8 hPa | - | - | - | - |
| 1777711897 | 26.67° C | 42% | 1024.9 hPa | - | - | - | - |
| 1777711897 | 26.67° C | 42% | 1024.9 hPa | - | - | - | - |
| 1777711595 | 26.11° C | 42% | 1024.9 hPa | - | - | - | - |
| 1777711595 | 26.11° C | 42% | 1024.9 hPa | - | - | - | - |
| 1777711293 | 26.11° C | 43% | 1025 hPa | - | - | - | - |
| 1777710991 | 25.56° C | 42% | 1025 hPa | - | - | - | - |
* Rain since midnight (hover to see other rain measurements)
** Current wind speed in m/s (hover to see current wind gust speed)